GEFSNE_850_meantemp_000.txt.gz
Temperature
13 13 14 14 15 15 16 16 15 15 15 15 14 14 14 14 14 14 14 15 14 15 16 15 15 15 14 15 15 15 15 15 15 16 16 16 15 15
13 14 14 14 15 15 15 15 15 15 14 14 14 14 14 14 13 13 14 14 15 15 15 15 14 14 14 14 14 14 14 14 14 15 15 15 15 15
13 13 13 13 14 14 14 14 14 14 14 13 13 13 13 13 13 13 13 14 15 14 13 13 13 13 13 13 13 13 13 14 14 14 14 14 14 14
13 13 13 13 13 13 13 14 14 14 13 13 12 12 12 12 12 12 12 12 13 12 12 12 12 12 12 12 12 13 13 13 13 13 14 13 13 13
13 12 13 12 12 12 12 13 13 13 13 13 12 12 12 12 11 11 11 11 12 12 12 12 12 12 12 12 12 13 13 13 13 13 13 13 13 13
13 13 13 13 13 12 12 12 12 12 12 12 12 12 12 12 12 11 11 11 10 10 11 11 11 11 12 12 12 12 12 12 12 13 13 13 13 13
13 13 13 13 13 13 12 12 11 11 11 11 12 12 12 13 13 13 12 11 11 11 11 10 10 10 11 11 12 12 12 12 12 12 12 12 13 13
13 13 13 13 12 12 12 12 11 11 11 12 12 13 13 13 13 13 12 12 11 11 11 10 10 10 10 11 11 11 11 11 11 11 11 12 12 12
12 12 12 13 12 12 12 12 11 11 12 12 12 12 12 12 12 13 12 13 12 11 11 10 10 10 9 10 10 10 10 10 10 10 10 11 11 11
12 12 12 12 12 12 11 12 12 12 12 12 12 11 11 11 11 11 11 11 11 11 11 11 11 9 9 9 9 9 9 9 9 9 9 10 10 10
11 11 11 12 11 11 12 12 12 12 12 12 12 11 11 11 11 11 11 12 12 11 11 12 11 11 9 8 8 8 8 8 8 8 8 9 9 8
11 11 11 11 12 11 11 12 12 12 11 11 11 11 11 11 11 11 12 13 13 12 10 11 11 11 9 8 8 8 8 8 7 7 7 7 8 7
11 11 11 11 11 11 11 11 11 11 11 10 10 10 10 10 10 10 11 12 12 12 10 11 11 11 11 9 9 8 8 7 7 7 7 7 6 6
12 11 11 11 11 11 10 11 11 11 11 11 11 11 11 10 9 9 10 9 10 9 8 9 10 10 10 10 10 9 8 7 7 7 7 7 6 6
12 10 10 10 10 10 10 10 10 11 11 11 11 11 10 9 9 8 8 9 8 8 8 8 8 9 9 9 9 8 8 8 7 6 7 7 7 6
11 10 10 9 9 9 9 9 10 10 11 11 10 10 9 9 10 9 9 9 9 7 7 7 7 8 9 8 8 8 8 8 7 6 6 7 7 6
10 9 9 9 9 9 9 9 9 9 10 10 10 9 10 10 10 10 10 10 10 10 9 8 7 7 7 8 8 8 8 8 7 6 7 7 7 6
9 10 10 10 9 10 10 9 9 10 10 10 10 10 10 10 10 10 10 10 10 9 9 9 8 8 8 7 7 8 8 7 7 7 7 7 7 6
10 10 10 10 10 10 10 10 10 10 10 10 10 10 10 10 9 10 10 10 9 9 9 8 8 9 10 10 7 7 7 7 7 7 7 6 7 6
11 11 11 11 10 10 10 10 10 9 10 10 10 10 10 10 10 10 10 10 9 9 9 8 8 8 8 8 8 7 6 6 6 6 6 6 6 6
12 11 11 11 11 11 10 10 10 9 10 10 10 10 10 10 10 10 9 9 9 9 9 9 7 7 7 7 8 8 7 6 6 5 5 5 5 5
12 12 11 11 11 11 10 10 10 9 9 10 10 10 10 10 10 10 9 9 9 9 9 8 7 7 8 8 8 8 8 7 6 6 6 5 5 4
11 12 11 11 11 11 10 10 10 10 10 10 10 10 10 10 10 10 9 9 9 9 8 8 8 8 8 8 8 8 8 7 7 7 7 6 5 4

GEFSNE_850_meantemp_006.txt.gz
Temperature
14 14 14 14 14 14 14 14 15 15 15 16 16 16 16 16 16 16 16 16 15 15 15 15 15 15 15 15 15 15 15 16 16 16 16 16 16 16
14 14 14 14 14 14 14 14 15 15 15 15 16 15 15 15 15 15 15 15 14 14 14 15 15 15 14 14 14 14 14 15 15 15 15 15 15 15
14 14 14 14 14 14 14 14 14 15 15 15 14 14 14 14 14 14 14 14 14 14 14 14 14 13 13 13 13 13 14 14 14 14 14 14 15 14
14 14 13 13 14 14 14 14 14 14 14 14 14 13 13 13 13 13 13 14 14 13 13 12 12 13 13 13 13 13 13 13 13 14 14 14 14 14
14 14 13 13 14 14 14 14 14 14 14 14 13 13 13 12 12 13 13 12 12 12 12 12 12 12 12 13 13 13 13 13 13 13 13 13 13 13
14 14 13 13 13 14 14 13 13 13 13 13 13 12 12 11 12 12 11 12 11 12 12 11 11 12 12 12 12 12 13 13 13 13 13 13 13 13
14 13 13 13 13 14 13 13 12 13 13 12 12 11 11 11 11 11 11 11 11 11 11 11 11 11 11 11 12 12 12 12 12 12 12 13 13 13
13 13 13 13 13 13 13 12 12 12 12 12 11 11 11 11 11 11 11 11 11 11 11 10 11 11 11 11 11 11 11 11 11 11 12 12 12 12
13 13 13 13 13 13 12 12 12 12 12 12 11 11 11 11 11 11 11 12 12 11 11 10 11 11 10 10 10 10 10 10 10 10 10 10 10 10
13 13 13 13 12 12 12 12 12 11 11 11 12 11 11 11 11 12 12 12 12 11 11 11 11 11 10 10 10 9 9 9 9 9 9 9 9 8
12 12 12 12 12 12 12 12 12 11 11 11 12 11 11 11 12 12 12 12 12 11 11 11 10 10 10 10 9 9 9 8 8 8 8 8 8 8
11 12 12 12 12 12 12 12 12 11 11 11 11 11 12 12 12 12 12 12 12 12 12 11 11 10 9 9 9 9 8 8 8 8 8 7 7 8
10 11 12 12 12 12 12 12 12 12 11 11 11 12 12 12 12 12 12 12 12 12 12 12 11 11 11 10 9 9 9 9 8 8 7 7 7 7
10 10 11 12 12 11 11 11 12 12 11 11 11 11 11 11 12 12 12 13 13 12 12 12 12 11 11 10 10 9 9 9 8 8 7 7 7 7
9 9 10 11 11 11 11 11 11 11 11 11 11 11 11 11 11 11 11 12 12 11 11 11 11 11 11 11 10 10 9 9 8 8 8 8 8 7
9 9 9 10 11 11 11 11 11 12 12 12 12 11 10 10 10 10 11 11 11 11 11 11 11 11 11 10 10 10 9 9 8 8 8 8 8 8
8 8 9 10 10 11 11 11 11 12 12 12 11 11 10 10 10 10 10 11 11 10 10 10 10 10 10 10 10 9 9 9 8 8 8 8 8 7
8 8 8 10 10 10 10 11 11 11 12 11 11 11 10 10 10 10 10 10 10 10 10 10 10 10 10 10 10 9 9 9 8 8 7 7 7 7
8 9 9 10 10 10 10 11 11 11 11 11 11 11 11 11 11 11 11 11 11 10 10 10 10 10 9 9 9 9 9 9 8 8 7 7 7 7
9 10 11 11 11 11 11 11 11 11 11 11 11 11 11 11 11 11 11 11 11 10 10 10 10 10 10 10 9 9 9 9 8 8 8 7 7 7
10 11 11 11 11 11 11 11 11 11 11 11 11 11 11 11 11 11 11 11 11 11 10 10 10 10 10 10 10 10 9 9 9 8 8 8 7 7
10 11 11 12 12 12 12 11 11 11 11 11 11 11 11 11 11 11 11 11 11 11 11 10 10 10 9 9 10 10 10 9 9 9 8 8 8 7
10 11 11 12 12 12 11 11 11 11 11 11 11 11 11 12 11 11 11 11 11 11 10 10 10 9 10 9 10 10 10 9 9 9 9 8 8 7

GEFSNE_850_meantemp_012.txt.gz
Temperature
14 13 13 13 14 14 14 13 13 13 13 15 15 15 16 16 16 16 16 16 16 16 16 16 16 16 16 16 16 16 16 16 16 16 16 16 16 16
14 13 13 13 13 14 14 14 14 13 13 14 14 14 15 15 15 15 15 15 15 16 16 16 15 15 16 16 15 15 15 15 15 15 15 15 16 16
14 14 13 13 13 14 14 14 14 14 14 14 13 13 13 14 14 14 14 14 15 15 15 15 15 15 15 14 14 14 14 14 14 14 14 14 14 15
14 14 13 13 13 14 14 14 14 14 14 13 13 13 13 13 13 12 13 13 14 13 14 14 14 14 13 13 13 13 13 13 13 13 13 13 13 14
14 13 13 13 13 14 14 14 14 14 14 13 13 13 13 13 12 12 12 12 13 12 12 12 13 13 13 13 13 13 13 13 13 13 13 13 13 13
13 13 13 13 13 14 14 14 14 14 14 13 13 13 12 12 12 12 11 11 11 11 12 12 12 12 12 12 12 13 13 13 13 13 13 13 13 13
12 13 13 13 13 13 14 14 14 14 13 13 12 12 12 12 12 11 11 11 11 11 11 11 11 12 12 12 12 12 12 12 12 12 12 12 12 12
12 12 13 13 13 13 13 14 14 14 13 13 12 12 12 12 11 11 11 11 10 10 11 10 11 11 11 11 11 11 11 11 11 11 11 11 11 11
11 12 12 13 13 13 13 13 14 13 13 13 13 12 12 12 11 11 11 11 10 10 10 10 10 10 10 10 10 10 10 10 10 10 10 10 9 9
10 11 11 12 12 13 13 13 13 13 13 12 12 12 12 11 11 11 11 10 10 9 10 10 9 10 10 10 9 9 9 9 9 9 8 8 8 8
10 10 11 11 12 12 13 13 13 12 12 12 12 12 11 11 11 10 10 10 9 9 9 10 9 9 9 9 9 9 8 8 8 8 7 7 7 7
9 10 10 11 11 12 12 12 12 12 11 11 11 11 11 11 11 11 11 11 10 9 9 10 9 9 8 8 8 8 8 8 7 7 7 7 7 7
9 9 10 10 11 11 12 12 13 12 11 11 11 11 10 10 11 11 11 12 11 11 10 10 10 10 9 8 8 8 8 8 7 7 7 7 7 7
9 9 9 10 10 11 11 12 12 12 11 11 11 11 11 11 11 11 11 11 12 12 11 11 11 10 10 9 8 8 8 8 8 7 7 7 7 7
8 8 8 9 9 10 10 11 11 11 11 11 11 11 11 11 11 11 11 11 11 11 11 11 11 11 10 10 9 9 8 8 8 7 7 7 7 7
8 8 8 8 8 9 10 10 11 11 11 11 11 11 11 11 11 11 11 11 11 11 11 11 11 11 11 10 10 9 8 8 8 8 7 7 7 7
8 8 7 8 8 8 9 10 10 11 11 11 11 11 11 11 11 11 11 12 11 11 11 11 11 11 11 10 10 9 9 8 8 8 8 7 7 7
8 7 7 7 8 8 9 9 10 10 10 11 11 11 11 11 11 10 11 11 11 11 11 11 11 10 10 9 9 9 9 8 8 8 8 7 7 7
7 7 7 8 8 8 9 9 10 10 10 11 11 11 11 11 10 10 10 10 11 11 11 10 10 10 10 9 9 9 9 9 8 8 8 8 8 8
7 7 7 7 8 8 9 9 10 10 11 11 11 11 11 10 10 10 10 10 10 10 9 9 9 10 10 10 10 9 9 9 9 9 8 8 8 8
7 7 7 7 8 9 9 9 10 10 11 11 11 11 10 10 10 10 10 10 10 10 9 9 9 10 10 10 9 9 9 9 9 9 9 8 8 8
7 7 7 7 8 9 9 10 10 11 11 11 11 11 10 10 10 10 10 10 10 10 10 10 9 9 10 10 10 10 9 9 9 9 9 9 9 8
7 7 7 8 8 9 9 10 10 11 11 11 11 11 11 10 10 10 11 10 10 10 10 10 10 9 9 9 10 10 10 10 9 9 9 9 9 8

GEFSNE_850_meantemp_018.txt.gz
Temperature
15 15 15 15 15 14 14 13 12 12 13 14 14 14 15 15 16 16 16 16 16 16 16 16 16 16 16 15 15 15 15 15 15 15 16 16 16 16
14 14 14 15 14 14 14 13 13 12 12 13 13 13 14 14 15 15 16 16 16 16 16 16 16 15 15 15 15 15 15 15 15 15 15 15 15 16
13 13 14 14 14 14 14 13 13 13 12 13 13 13 13 13 13 14 14 15 15 15 15 15 15 15 15 15 15 15 15 15 15 15 15 15 15 15
12 12 13 13 13 13 14 14 13 13 13 13 13 12 12 12 12 12 13 13 14 14 14 15 15 14 14 14 14 14 14 14 14 14 14 14 14 14
11 11 12 12 13 13 14 14 13 13 13 13 12 12 12 12 12 12 12 12 12 13 13 13 14 14 14 13 13 13 13 13 13 13 13 13 13 13
10 11 11 12 12 13 13 14 13 13 13 13 12 12 12 12 12 12 11 11 11 12 12 12 12 13 13 13 13 13 13 13 13 13 13 13 13 13
10 10 11 11 12 12 13 13 13 13 13 13 12 12 12 12 12 11 11 11 11 11 11 12 12 12 12 12 12 12 12 12 12 12 12 12 12 12
9 10 10 10 11 12 12 13 13 13 13 13 12 12 12 12 12 11 11 11 10 10 11 11 11 11 11 12 12 12 12 12 12 12 12 12 12 12
9 9 10 10 11 11 12 12 13 13 13 13 13 12 12 12 12 12 11 11 11 10 11 10 10 11 11 11 11 11 11 11 11 11 11 11 11 11
9 9 9 10 10 11 12 12 12 13 13 13 13 13 12 12 12 12 11 11 10 10 10 10 10 10 10 10 10 10 10 10 9 9 9 9 9 10
9 9 9 9 10 10 11 11 12 12 13 13 12 12 12 12 12 11 11 10 9 9 9 10 9 9 9 9 9 8 8 8 8 8 8 8 8 8
9 9 9 9 9 10 10 11 11 12 12 12 12 12 12 12 12 12 11 11 10 8 9 9 9 9 8 8 8 8 8 7 7 7 7 7 7 7
9 9 9 9 9 9 10 10 11 11 12 12 12 12 11 11 11 11 11 11 11 10 9 10 9 9 9 7 7 7 7 7 7 6 6 6 6 7
8 9 9 8 9 9 9 10 10 11 11 11 11 11 11 11 10 10 10 11 11 12 11 10 10 10 9 8 7 7 7 7 7 7 6 6 6 7
8 8 8 8 8 9 9 10 10 10 11 11 11 11 11 10 10 10 10 10 10 10 11 11 11 10 10 10 8 8 7 7 7 7 7 7 7 7
8 8 8 8 8 8 9 9 10 10 10 11 11 10 10 10 10 10 10 9 10 10 10 10 10 10 10 10 9 8 8 7 7 7 7 7 7 7
8 8 8 7 7 8 8 9 9 10 10 10 10 10 10 10 10 10 10 10 10 10 10 10 9 9 10 10 9 9 8 8 7 7 7 7 7 7
8 8 7 7 7 7 8 8 9 9 10 10 10 10 10 10 10 10 10 10 10 10 10 10 10 9 9 9 9 9 8 8 8 7 7 7 7 8
7 7 7 7 7 7 7 8 8 9 10 10 10 10 10 10 10 10 10 11 11 11 11 10 10 10 9 9 9 9 9 8 8 8 8 8 8 8
7 7 7 7 7 7 7 7 8 9 9 10 10 11 11 11 11 11 11 11 11 11 11 11 11 11 10 10 10 9 9 8 8 8 8 8 8 8
7 7 7 7 7 6 7 7 8 9 9 10 10 10 10 11 11 11 11 11 11 11 11 11 11 11 10 10 10 9 9 9 8 8 8 8 8 8
7 7 6 6 6 6 7 7 8 9 9 10 10 10 10 11 11 10 10 10 10 10 10 10 10 10 10 10 9 9 9 9 9 9 9 9 9 9
7 6 6 6 6 6 7 7 8 9 9 10 10 10 10 10 10 10 10 10 10 10 10 10 10 9 9 9 9 9 9 9 9 9 9 9 9 9

GEFSNE_850_meantemp_024.txt.gz
Temperature
14 14 14 15 15 15 15 15 16 18 18 15 15 14 15 15 16 16 16 17 17 17 17 17 17 17 16 16 16 16 16 16 15 15 15 15 15 15
13 13 13 14 14 14 15 15 15 16 17 16 15 14 14 14 15 15 16 16 16 16 16 16 16 16 16 16 16 15 15 15 15 15 15 15 15 15
12 12 13 13 13 14 14 14 14 15 15 16 15 14 14 14 14 15 15 15 16 16 16 16 16 16 16 16 15 15 15 15 15 15 14 14 14 14
11 11 11 12 12 13 13 13 14 14 14 15 14 14 14 14 14 14 14 14 15 15 15 16 16 16 15 15 15 15 15 15 14 14 14 14 14 14
10 11 11 11 11 12 12 13 13 13 13 14 14 14 13 13 13 13 13 13 13 13 14 14 15 15 15 15 14 14 14 14 14 14 13 13 13 14
10 10 10 10 10 11 11 12 12 13 13 13 14 14 13 13 13 12 12 12 12 12 13 13 13 14 14 14 14 13 13 13 13 13 13 13 13 13
10 10 10 10 10 10 10 11 11 12 13 13 13 13 13 13 12 12 12 12 12 12 12 12 12 12 12 12 13 12 12 12 12 12 12 12 12 12
10 10 10 10 10 10 10 10 10 11 12 12 13 13 13 13 12 12 12 11 11 11 11 11 11 11 11 12 12 12 12 12 12 12 12 12 12 12
9 9 10 10 9 10 10 10 10 10 11 11 12 13 13 13 12 12 12 12 11 11 11 11 10 10 11 11 11 11 11 12 12 11 12 12 12 12
9 9 9 10 9 9 9 10 10 10 11 11 12 12 13 13 13 13 12 11 11 11 10 10 9 10 10 11 10 11 11 11 11 11 11 11 11 11
9 9 9 9 9 9 9 9 10 10 10 11 11 12 12 12 12 12 11 11 10 10 10 10 9 9 9 9 9 9 9 9 10 10 10 10 10 11
8 9 9 9 9 9 9 9 10 10 10 10 11 11 12 12 12 12 12 11 11 9 9 9 9 9 7 7 8 8 8 8 8 8 9 9 9 8
9 9 9 9 9 9 9 9 9 10 10 10 11 11 12 12 11 11 11 11 12 11 10 10 9 9 9 7 7 7 7 7 7 7 7 8 8 7
8 9 9 9 9 9 9 9 9 9 9 10 10 11 11 11 11 11 11 11 11 12 12 11 10 10 9 8 7 7 7 7 7 7 7 7 7 7
8 8 8 8 8 9 9 9 9 9 9 10 10 11 11 11 11 11 11 11 10 10 11 10 10 10 10 10 9 7 7 7 7 7 6 7 7 7
7 7 8 8 8 8 9 9 9 9 9 10 10 11 11 11 10 10 10 10 9 9 9 9 9 10 10 10 9 8 8 8 7 7 7 7 7 7
7 7 8 8 8 8 9 9 9 9 9 10 10 10 11 10 10 10 10 10 9 8 8 8 8 9 10 10 9 9 9 8 8 8 7 8 8 8
7 7 8 8 8 9 9 9 9 9 9 9 10 10 10 10 10 10 9 9 9 8 8 8 9 9 9 9 10 9 9 9 8 8 8 8 9 8
7 7 8 8 8 9 9 9 9 9 9 9 10 10 10 10 10 9 9 9 9 9 9 9 9 10 10 10 9 10 10 9 9 8 8 9 10 9
7 7 8 8 8 8 8 8 8 8 9 9 9 10 10 9 9 9 9 9 9 10 10 10 10 11 11 12 11 10 9 9 9 9 9 9 10 10
7 8 8 8 8 8 8 8 8 8 8 9 9 9 9 9 9 9 9 10 10 10 10 11 11 11 12 12 11 10 10 9 9 9 10 10 10 10
7 7 8 8 8 8 8 8 8 8 8 8 9 9 9 9 9 9 9 10 10 11 11 11 11 11 11 11 12 11 10 9 9 9 9 10 11 11
7 7 8 8 8 8 7 7 7 8 8 8 8 9 9 9 9 10 10 10 11 11 11 11 11 11 11 12 12 12 11 10 9 9 9 10 10 10

GEFSNE_850_meantemp_030.txt.gz
Temperature
14 14 14 15 15 16 17 17 17 18 18 17 17 17 17 16 16 16 16 16 16 17 17 17 17 17 17 17 17 16 16 16 16 16 16 16 16 16
13 13 14 14 15 15 16 16 17 17 17 17 17 16 16 16 16 16 16 16 16 16 17 17 17 17 17 17 16 16 16 16 16 16 16 16 16 15
12 13 13 13 14 14 15 15 16 16 17 17 16 16 16 16 15 15 15 16 16 16 16 16 17 17 17 16 16 16 16 16 16 16 16 15 15 15
12 12 12 12 13 13 14 15 15 15 15 16 16 15 15 15 15 14 14 15 15 16 16 16 16 16 16 16 16 16 16 16 15 15 15 15 15 15
11 11 11 12 12 12 13 14 14 14 15 15 15 15 15 15 14 14 14 14 14 15 15 15 16 16 16 16 16 16 15 15 15 15 15 15 15 15
11 11 11 11 11 12 12 13 13 14 14 14 15 15 15 14 14 14 13 13 13 13 14 14 15 15 15 15 15 15 15 15 15 15 15 15 14 14
10 10 11 11 11 11 11 12 12 13 13 14 14 14 14 14 14 14 13 12 12 12 12 13 13 14 14 14 14 14 14 14 14 14 14 14 13 13
9 10 10 11 11 11 11 11 11 12 12 13 13 14 14 14 14 14 13 12 12 12 12 12 12 12 13 13 13 13 13 13 13 13 13 13 13 13
8 9 9 10 10 11 11 11 11 11 11 12 12 13 13 13 14 13 13 12 12 12 12 11 11 12 12 12 12 12 12 12 12 12 12 12 12 13
8 8 9 10 10 10 10 10 11 11 11 11 12 12 13 13 13 14 13 12 12 11 11 11 11 11 11 11 11 11 12 12 12 12 12 12 12 12
8 8 9 9 10 10 10 10 10 10 11 11 11 12 12 12 13 13 12 12 11 11 11 11 11 11 11 11 11 11 11 11 11 12 12 12 12 12
7 8 8 9 9 10 10 10 10 10 10 10 11 11 11 12 12 12 13 12 12 11 11 11 11 11 10 10 10 10 10 10 11 11 11 12 12 12
7 8 8 9 9 9 10 10 10 10 10 10 10 11 11 11 12 12 12 13 12 12 12 11 11 11 11 9 9 9 10 10 10 11 11 11 12 12
7 8 8 9 9 9 9 9 9 9 9 9 10 10 11 11 11 11 12 12 12 13 13 12 12 11 12 11 9 9 9 10 10 10 10 10 10 10
7 7 8 8 9 9 9 9 9 9 9 9 10 10 10 11 11 11 11 11 11 12 12 12 12 12 12 13 12 10 9 9 9 9 9 9 9 9
7 7 7 8 8 9 9 9 9 9 9 9 10 10 10 10 11 11 11 11 11 11 11 11 11 11 11 12 12 11 10 10 9 9 9 8 8 8
7 7 8 8 8 8 8 9 9 9 9 9 10 10 10 10 10 10 11 11 11 11 10 10 10 10 10 11 11 11 10 9 9 8 8 8 8 8
7 7 7 8 8 8 8 9 9 9 9 9 10 10 10 10 10 10 10 11 11 11 11 10 9 9 9 9 10 10 10 9 9 8 8 8 8 8
7 7 8 8 8 8 9 9 9 9 9 9 10 10 10 10 10 10 10 10 10 11 10 10 10 9 9 9 9 9 10 9 9 8 8 8 8 8
7 7 8 8 8 9 9 9 9 10 9 9 10 9 9 10 9 10 10 10 10 10 10 9 10 10 10 10 10 10 10 9 9 9 9 9 9 9
8 8 8 9 9 9 9 9 9 10 10 9 9 9 9 9 9 9 10 10 10 10 9 9 10 10 10 10 10 10 10 10 9 9 9 9 9 10
8 8 9 9 9 9 9 9 9 9 9 9 9 9 9 9 9 9 9 9 10 10 10 10 10 10 10 10 10 10 10 10 10 9 9 9 10 10
8 8 9 9 9 9 9 9 9 9 9 9 9 9 9 9 9 9 9 9 10 9 9 9 10 10 10 11 11 10 10 10 10 10 10 10 10 11

GEFSNE_850_meantemp_036.txt.gz
Temperature
12 12 13 13 13 13 13 14 14 15 15 16 16 16 16 17 17 16 16 16 16 16 16 16 16 16 16 16 16 16 16 16 16 16 16 16 16 16
11 11 12 12 13 13 13 13 14 14 15 16 16 16 16 16 16 16 16 16 16 16 16 16 16 16 16 16 16 16 16 16 16 16 16 16 16 16
10 11 11 12 12 12 13 13 13 14 14 15 16 16 16 16 16 16 16 16 16 16 16 16 16 16 16 16 16 16 16 16 16 16 16 16 16 16
10 10 10 11 11 12 12 12 13 13 14 14 15 15 15 16 16 16 16 16 16 16 16 16 16 16 16 16 16 16 16 16 16 16 16 16 16 16
9 9 10 10 10 11 11 12 12 13 13 14 14 15 15 15 15 15 15 15 15 15 16 16 16 16 16 16 16 16 16 16 16 16 16 15 15 15
9 9 9 9 10 10 11 11 11 12 12 13 14 14 14 15 15 15 14 14 15 15 15 15 15 15 16 16 16 16 16 16 16 15 15 15 15 15
8 8 8 9 9 10 10 10 11 11 12 12 13 13 14 14 14 14 14 14 14 14 14 14 15 15 15 15 15 15 15 15 15 15 15 15 15 15
7 8 8 8 9 9 9 10 10 11 11 11 12 12 13 14 14 14 14 13 12 12 13 13 13 13 14 14 14 15 15 15 15 15 15 15 14 14
7 7 7 8 8 8 9 9 10 10 10 11 11 12 12 13 13 14 14 14 14 13 12 12 12 12 12 13 13 14 14 14 14 14 14 14 14 14
6 7 7 7 8 8 8 9 9 10 10 10 11 11 12 12 13 14 14 13 13 12 12 12 11 11 11 12 12 12 13 13 13 13 13 13 13 13
6 6 6 7 7 7 8 8 9 9 10 10 10 11 11 12 12 12 12 12 12 11 11 11 11 11 11 11 11 11 11 12 12 12 12 13 13 13
6 6 6 6 7 7 7 8 8 9 9 10 10 10 10 11 11 12 12 12 12 11 11 11 11 11 10 10 10 11 11 11 11 12 12 12 12 12
6 6 6 6 6 7 7 8 8 9 9 9 9 10 10 10 11 11 12 12 13 12 12 11 11 11 11 10 10 10 11 11 11 11 12 12 12 12
6 6 6 6 6 7 7 7 8 8 9 9 9 9 10 10 10 11 11 11 12 13 13 12 12 12 11 11 10 10 10 11 11 11 12 12 12 12
6 6 6 6 6 7 7 7 8 8 8 8 9 9 9 10 10 11 11 11 11 11 12 12 12 12 12 12 12 12 11 11 11 11 11 12 12 12
6 6 6 6 6 7 7 7 8 8 8 8 9 9 9 9 10 10 10 10 11 11 11 11 12 12 12 12 13 13 12 12 11 11 11 11 11 11
6 6 6 6 7 7 7 8 8 8 8 8 9 9 9 9 9 10 10 10 10 11 11 11 11 11 11 12 12 12 12 12 12 11 11 11 11 11
6 6 6 6 7 7 7 8 8 8 8 8 9 9 9 9 9 10 10 10 10 10 11 11 11 10 10 10 11 12 12 11 11 11 11 11 11 10
6 6 7 7 7 7 8 8 8 8 8 8 9 9 9 9 9 9 9 9 10 10 10 11 11 11 10 10 10 10 11 11 11 11 11 11 11 10
7 7 7 7 7 8 8 8 8 8 8 8 9 9 9 9 9 9 9 9 9 10 10 10 11 11 12 12 11 11 11 11 11 11 10 10 9 9
7 7 7 7 7 8 8 8 8 8 8 8 9 9 9 9 9 9 9 9 9 9 10 10 11 11 10 10 11 11 11 10 11 11 10 9 8 8
7 7 7 8 8 8 8 8 8 8 8 9 9 9 9 9 9 9 9 9 9 9 10 10 10 9 9 10 10 11 11 10 9 9 9 10 9 9
8 8 8 8 8 8 8 8 8 9 9 9 9 9 9 9 9 9 9 9 9 9 9 9 9 9 9 9 10 10 10 10 9 8 8 8 9 9

GEFSNE_850_meantemp_042.txt.gz
Temperature
10 10 11 11 11 11 11 11 11 12 13 14 14 15 15 15 15 15 16 16 16 16 16 16 16 16 16 16 16 16 16 16 16 17 16 16 16 16
9 10 10 10 11 11 11 11 11 11 12 13 14 14 15 15 15 15 15 15 15 15 16 16 16 16 16 16 16 16 16 16 16 16 16 16 16 16
9 9 9 10 10 10 10 11 11 11 11 13 13 14 14 14 15 15 15 15 15 15 15 16 16 16 16 16 16 16 16 16 16 16 16 16 16 16
8 8 9 9 9 10 10 10 11 11 11 12 13 13 14 14 14 14 15 15 15 15 15 15 15 16 16 16 16 16 16 16 16 16 16 16 16 16
8 8 8 8 9 9 9 10 10 10 11 11 12 13 13 13 14 14 14 15 15 15 15 15 15 15 15 15 15 15 16 16 16 16 16 16 16 16
8 8 8 8 8 8 9 9 10 10 10 11 11 12 12 13 13 13 14 14 14 15 15 15 15 15 15 15 15 15 16 16 16 16 16 16 16 15
8 8 8 8 8 8 8 9 9 9 10 10 11 11 12 12 13 13 13 13 13 14 14 14 15 15 15 15 15 15 15 15 16 15 16 16 15 15
8 8 8 7 7 7 8 8 8 9 9 10 10 11 11 12 12 12 13 13 12 13 13 13 14 14 14 15 15 15 15 15 15 15 15 15 15 15
8 8 8 8 7 7 7 8 8 8 9 9 10 10 11 11 12 12 12 12 13 13 12 12 12 12 13 14 14 14 15 15 15 15 15 15 15 14
7 7 7 7 7 7 7 7 7 8 8 9 9 10 10 11 11 11 12 12 12 12 12 12 12 12 12 12 13 13 14 14 14 14 14 14 14 14
7 7 7 7 7 7 6 6 7 8 8 8 9 9 10 10 10 11 11 11 11 11 11 12 11 11 11 11 12 12 12 13 13 13 13 13 13 13
7 7 7 7 7 6 6 6 6 7 8 8 8 9 9 10 10 10 11 11 11 11 11 11 11 11 11 11 11 11 12 12 12 12 12 12 12 12
6 7 7 6 6 6 6 6 6 7 7 7 8 9 9 9 10 10 10 11 11 11 12 11 11 11 11 11 11 11 11 11 11 11 11 11 11 11
6 6 6 6 6 6 6 6 6 6 6 7 7 8 9 9 10 10 10 10 11 11 12 12 11 11 12 11 11 11 11 11 11 11 11 11 11 11
6 6 6 6 6 6 6 6 6 6 6 6 7 8 9 9 9 10 10 10 10 10 11 11 11 12 12 12 12 11 11 11 11 11 11 11 11 11
6 6 6 6 6 6 6 6 6 6 6 6 7 8 8 9 9 9 10 10 10 10 10 10 11 11 11 12 12 12 11 11 11 11 10 11 11 11
6 6 6 6 6 5 5 6 6 6 6 6 7 7 8 8 9 9 9 9 10 10 10 10 10 10 11 11 11 12 11 11 11 11 11 11 11 11
6 6 6 6 6 6 5 6 6 6 6 6 7 7 8 8 9 9 9 9 9 10 10 10 10 10 10 10 11 11 11 11 11 11 11 11 11 11
6 6 6 6 6 6 6 6 6 6 6 6 7 7 7 8 8 8 9 9 9 9 10 10 10 10 10 10 11 11 11 11 11 11 11 11 11 11
6 6 6 6 6 6 6 6 6 6 6 7 7 7 7 8 8 8 8 9 9 9 9 9 10 10 10 11 11 11 11 11 11 11 11 11 10 10
6 6 7 7 6 6 6 6 6 6 7 7 7 7 7 8 8 8 8 9 9 9 9 9 10 10 10 10 10 11 11 11 11 11 11 11 10 10
7 7 7 7 7 7 7 7 7 7 7 7 7 7 7 8 8 8 8 8 9 9 9 9 9 9 9 10 10 11 11 11 10 10 10 11 11 11
7 7 7 7 7 7 7 7 7 7 7 7 7 7 7 8 8 8 8 8 9 9 9 9 9 9 9 9 10 10 10 10 10 10 10 9 10 10

GEFSNE_850_meantemp_048.txt.gz
Temperature
10 10 10 11 11 11 12 12 12 13 14 14 14 14 14 14 14 14 14 15 15 16 16 16 16 16 16 16 16 16 16 16 16 16 16 16 16 16
9 9 9 10 11 11 11 11 12 12 13 14 13 13 13 13 14 14 14 14 15 15 15 15 16 16 16 16 16 16 16 16 16 16 16 16 16 16
9 9 9 9 9 10 11 11 11 12 12 13 13 13 13 13 14 14 14 14 15 15 15 15 15 16 16 16 16 16 16 16 16 16 16 16 16 16
9 9 9 9 9 9 10 10 11 11 11 12 12 12 12 13 13 14 14 14 14 14 14 14 15 15 15 15 16 16 16 16 16 16 16 16 16 16
8 8 8 9 9 9 9 10 10 11 11 11 12 12 12 12 13 13 13 14 14 14 14 14 14 14 15 15 15 15 16 16 16 16 16 16 16 16
8 8 8 8 8 8 9 9 9 10 10 11 11 12 12 12 12 13 13 13 14 14 14 14 14 14 14 15 15 15 15 15 16 16 16 16 16 16
8 8 8 8 8 8 8 9 9 9 10 11 11 12 12 12 12 13 13 13 13 13 14 14 14 14 14 14 15 15 15 15 15 15 15 16 16 16
8 8 8 8 8 8 8 8 8 8 9 10 11 11 12 12 12 12 12 12 12 13 13 13 14 14 14 14 15 15 15 15 15 15 15 15 15 15
8 8 8 9 8 8 8 8 8 8 8 8 9 10 11 11 11 11 12 12 12 13 13 13 13 13 14 14 14 15 15 15 15 15 15 15 15 15
8 8 8 8 8 8 8 8 8 8 8 8 8 9 9 10 10 10 11 12 12 12 12 12 13 13 13 13 14 14 15 15 15 15 15 15 15 15
8 8 8 8 8 7 7 7 7 8 8 8 8 8 8 9 9 10 10 11 11 12 12 12 12 12 12 12 13 13 14 14 14 15 15 15 15 15
8 8 8 8 7 7 7 7 7 7 8 8 8 8 8 9 9 9 10 11 11 11 11 12 12 12 12 12 12 12 13 13 14 14 14 14 14 14
8 8 8 8 7 7 7 7 7 7 7 7 8 8 8 8 9 9 10 10 11 11 11 11 12 11 11 11 11 12 12 12 13 13 13 13 13 13
8 8 8 7 7 7 7 7 7 7 6 7 7 8 9 9 9 10 10 10 10 11 11 11 11 11 11 11 11 11 11 12 12 12 12 12 12 13
8 7 7 7 7 7 7 7 6 6 6 6 7 8 9 9 10 9 9 10 10 10 10 11 11 11 11 12 12 11 11 11 11 12 12 12 12 12
7 7 7 7 7 7 6 6 6 6 6 6 7 7 8 9 9 9 9 10 10 10 10 10 11 11 11 11 12 11 11 11 11 11 11 11 11 11
7 7 7 7 7 7 7 7 6 6 6 6 7 7 8 8 9 9 9 9 9 10 10 10 10 10 10 11 11 11 11 11 11 11 11 11 11 11
7 6 7 7 7 7 7 7 7 7 7 6 7 7 7 8 8 9 9 9 9 9 10 10 10 10 10 10 10 11 11 11 11 11 11 11 11 11
7 7 7 7 7 7 7 7 7 7 7 7 7 7 7 7 8 8 8 9 9 9 9 9 10 9 9 9 10 10 11 11 11 11 11 11 11 11
7 7 7 7 7 7 8 8 7 7 7 7 7 7 7 7 7 8 8 9 9 9 9 9 9 9 10 10 9 10 10 11 11 11 10 10 10 10
8 8 8 8 8 8 8 7 7 7 7 7 7 7 7 7 8 8 8 9 9 9 9 9 9 9 10 10 9 9 10 10 10 11 10 10 10 10
8 8 8 8 8 8 7 7 7 7 7 7 7 7 7 7 8 8 8 8 9 9 9 9 9 9 9 9 9 9 9 9 10 10 10 10 10 10
8 7 8 8 8 7 7 7 7 7 8 7 7 7 7 7 8 8 8 8 9 9 9 9 9 8 9 9 9 9 9 10 9 9 9 10 10 11

GEFSNE_850_meantemp_054.txt.gz
Temperature
11 11 11 11 12 12 12 12 13 13 13 14 14 14 14 14 14 14 15 15 15 15 15 15 15 16 16 16 16 16 16 17 17 17 17 17 17 17
11 11 11 11 11 11 11 12 12 12 12 13 13 14 14 14 14 14 14 14 14 15 15 15 15 15 16 16 16 16 16 16 16 16 17 17 17 17
11 11 11 11 11 11 11 11 11 12 12 12 12 13 13 13 13 14 14 14 14 15 15 15 15 15 15 16 16 16 16 16 16 16 16 16 17 17
10 10 10 10 10 10 10 10 11 11 11 11 12 12 12 13 13 13 13 14 14 14 14 15 15 15 15 15 15 15 16 16 16 16 16 16 16 17
10 10 10 10 10 10 10 10 10 10 11 11 11 12 12 12 13 13 13 13 13 14 14 14 14 14 15 15 15 15 15 16 16 16 16 16 16 16
10 10 10 10 10 10 10 10 10 10 10 10 11 11 12 12 12 13 13 13 13 13 13 14 14 14 14 15 15 15 15 15 15 16 16 16 16 16
10 10 10 10 10 10 10 10 10 10 10 10 10 11 11 12 12 12 13 13 13 13 13 13 14 14 14 14 14 15 15 15 15 15 16 16 16 16
10 10 10 10 10 10 10 10 10 10 10 9 9 10 10 11 11 11 12 12 12 13 13 13 13 13 14 14 14 14 14 15 15 15 15 16 16 16
10 10 9 9 10 10 10 9 9 9 9 9 9 10 10 10 10 11 11 11 11 12 12 12 13 13 13 13 14 14 14 14 14 15 15 15 15 15
10 10 10 10 10 10 9 9 9 9 9 9 9 10 10 10 10 10 10 10 11 11 12 12 12 13 13 13 13 13 13 14 14 14 15 15 15 15
10 10 9 9 10 9 9 9 9 9 9 9 9 9 9 9 9 9 9 9 10 11 11 12 12 12 12 13 13 13 13 13 14 14 14 14 15 15
10 10 10 10 10 9 9 9 9 9 9 8 9 9 9 9 9 9 9 9 9 10 11 11 12 12 12 12 13 13 13 13 13 14 14 14 14 14
9 9 9 9 10 9 9 9 9 9 8 8 8 8 9 9 9 9 9 9 9 10 11 11 11 11 12 12 12 12 12 13 13 13 13 14 14 14
9 9 9 9 9 9 9 9 8 8 8 8 8 8 8 9 9 9 9 10 10 10 11 11 11 11 11 12 12 12 12 12 12 13 13 13 13 13
9 9 9 9 9 8 8 8 8 8 8 8 7 8 8 8 9 9 10 10 10 10 10 10 10 11 11 11 12 12 12 12 12 12 13 13 13 13
9 9 9 8 8 8 8 8 8 8 8 7 7 8 8 8 9 9 9 10 10 10 10 10 10 11 11 11 11 12 12 12 12 12 12 12 12 13
8 8 8 8 8 8 8 8 8 8 8 8 8 8 8 8 8 9 9 9 9 10 10 10 10 10 11 11 11 11 11 12 12 12 12 12 12 12
9 8 8 8 8 8 8 8 8 8 8 8 8 8 8 8 8 9 9 9 9 10 10 10 10 10 10 10 10 11 11 11 11 12 12 12 12 12
9 8 8 8 8 8 8 8 9 9 9 8 8 8 8 8 8 9 9 9 9 9 10 10 10 10 10 10 10 10 11 11 11 11 11 12 12 12
9 9 8 8 8 8 8 9 9 9 9 9 9 9 8 8 8 8 9 9 9 9 9 10 10 10 10 10 10 10 10 11 11 11 11 11 11 11
8 8 8 8 8 9 9 9 9 9 9 9 9 9 8 8 8 8 9 9 9 9 9 9 10 10 10 10 10 10 10 10 11 11 11 11 11 11
9 9 9 9 9 9 9 9 9 9 9 9 8 8 8 8 8 8 8 8 9 9 9 9 10 10 9 9 10 10 10 10 10 10 10 11 11 11
9 9 9 9 9 9 9 8 8 8 8 8 8 8 8 8 8 8 8 8 9 9 9 9 9 9 9 9 9 10 10 10 9 9 10 10 10 11

GEFSNE_850_meantemp_060.txt.gz
Temperature
11 11 11 11 11 11 11 11 11 11 11 12 12 13 13 13 13 13 13 14 14 14 14 14 15 15 15 15 15 16 16 16 16 16 16 17 17 17
11 11 11 11 11 11 11 11 11 10 10 11 12 12 12 12 13 13 13 13 13 13 14 14 14 14 15 15 15 15 15 16 16 16 16 16 16 16
11 11 11 11 11 11 10 10 10 10 10 11 11 11 12 12 12 12 13 13 13 13 13 14 14 14 14 14 15 15 15 15 15 16 16 16 16 16
11 11 11 11 11 10 10 10 10 10 10 10 11 11 11 11 12 12 12 12 13 13 13 13 14 14 14 14 14 14 15 15 15 15 15 16 16 16
11 11 11 10 10 10 10 10 10 10 10 10 10 11 11 11 11 11 12 12 12 12 13 13 13 13 14 14 14 14 14 15 15 15 15 15 15 16
11 11 10 10 10 10 10 10 10 10 10 10 10 10 10 11 10 11 11 11 12 12 12 12 13 13 13 13 14 14 14 14 14 15 15 15 15 15
11 10 10 10 10 10 10 10 10 10 10 10 10 10 10 10 10 10 10 11 11 11 12 12 12 12 13 13 13 14 14 14 14 14 15 15 15 15
11 11 10 10 10 10 10 10 10 9 9 9 9 9 10 10 10 10 10 10 10 11 11 12 12 12 12 13 13 13 13 14 14 14 14 14 15 15
11 11 11 11 10 10 10 10 9 9 9 9 9 9 10 10 9 9 9 9 10 10 10 11 11 12 12 12 13 13 13 13 13 14 14 14 14 15
11 11 11 11 10 10 10 10 10 10 9 9 9 9 9 9 9 9 9 9 9 10 10 10 11 11 12 12 12 13 13 13 13 13 14 14 14 14
12 11 11 10 10 10 9 9 10 10 10 9 9 9 9 9 9 9 9 9 9 10 10 9 10 11 12 12 12 13 13 13 13 13 13 13 14 14
12 11 11 10 10 10 9 9 9 10 9 9 9 9 9 9 9 8 8 8 8 9 10 9 10 10 11 11 12 12 12 13 13 13 13 13 13 13
12 12 11 10 10 10 9 9 9 9 9 9 9 9 9 9 9 8 8 8 8 8 9 9 9 9 9 10 11 11 12 12 12 12 12 13 13 13
12 11 11 10 10 10 10 9 9 9 9 8 8 8 8 9 9 8 8 8 8 8 9 9 9 9 9 9 10 11 11 11 11 12 12 12 12 12
12 11 11 10 10 10 9 9 9 9 8 8 8 8 8 8 8 8 8 8 8 8 9 9 9 9 9 9 9 10 11 11 11 11 12 12 12 12
11 11 10 10 10 9 9 9 9 9 8 8 8 8 8 8 8 8 8 8 8 8 9 9 9 9 9 9 9 10 10 10 11 11 11 11 12 12
11 11 10 10 10 9 9 9 9 8 8 8 8 8 8 8 8 8 8 8 8 8 8 9 9 9 9 9 9 9 10 10 11 11 11 11 11 12
10 10 10 10 9 9 9 9 9 8 8 8 8 8 8 8 8 8 8 8 8 8 8 9 9 9 9 9 9 9 10 10 11 11 11 11 11 11
10 10 10 10 9 9 9 9 9 9 8 8 8 8 8 8 8 8 8 8 8 8 8 8 9 8 8 8 9 10 10 10 10 10 11 11 11 11
10 10 10 10 9 9 9 9 9 8 8 8 8 8 8 8 8 8 8 8 8 8 8 8 8 9 9 9 9 10 10 10 10 10 10 10 11 11
10 10 10 9 9 9 9 9 8 8 8 8 8 8 8 8 8 8 8 8 8 8 8 8 9 9 9 9 8 9 9 9 9 10 10 10 10 10
10 9 9 9 9 9 9 8 8 8 8 8 8 8 8 8 8 8 8 8 8 8 8 8 9 8 8 8 8 9 9 9 9 9 9 10 10 10
9 9 9 9 8 8 8 8 8 8 8 8 8 8 8 8 8 8 8 8 8 8 8 8 8 8 8 8 9 9 9 9 9 9 9 9 10 10

GEFSNE_850_meantemp_066.txt.gz
Temperature
11 11 11 11 11 11 11 11 10 10 11 12 12 12 12 12 12 13 13 13 13 13 14 14 14 14 14 14 15 15 15 15 15 15 15 16 16 16
11 11 11 11 11 11 10 10 10 10 10 11 11 11 11 12 12 12 12 12 13 13 13 13 13 14 14 14 14 14 14 15 15 15 15 15 15 15
11 11 11 11 11 11 10 10 10 10 10 10 11 11 11 11 11 11 12 12 12 12 13 13 13 13 13 14 14 14 14 14 15 15 15 15 15 15
12 11 11 11 11 11 10 10 10 10 10 10 10 11 11 11 11 11 11 11 12 12 12 12 13 13 13 13 13 14 14 14 14 14 15 15 15 15
12 12 11 11 11 11 10 10 10 10 10 10 10 10 10 10 10 11 11 11 11 11 12 12 12 12 12 13 13 13 13 14 14 14 14 14 15 15
12 12 12 11 11 11 10 10 10 10 10 10 10 10 10 10 10 10 10 11 11 11 11 11 12 12 12 12 12 13 13 13 14 14 14 14 14 15
13 13 12 12 11 11 11 10 10 10 10 10 10 10 10 10 10 10 10 10 10 11 11 11 11 11 11 12 12 12 12 13 13 13 14 14 14 14
14 13 13 12 12 11 11 11 10 10 10 10 10 10 10 10 10 10 9 9 10 10 10 11 11 11 11 11 12 12 12 12 13 13 13 14 14 14
14 13 13 13 12 11 11 11 10 10 10 10 9 10 10 10 10 9 9 9 9 10 9 10 10 11 11 11 11 12 12 12 12 13 13 13 14 14
14 14 13 13 12 12 11 11 11 10 10 10 10 10 10 10 9 9 9 9 9 9 9 9 10 10 11 11 11 11 12 12 12 12 13 13 13 13
14 14 13 13 13 11 11 11 11 11 10 10 10 9 9 9 9 9 9 8 8 9 9 9 9 9 10 10 11 11 11 12 12 12 12 13 13 13
14 14 13 13 13 12 11 11 11 11 11 10 10 9 9 9 9 9 9 8 8 8 9 9 9 9 9 10 10 10 11 11 11 12 12 12 12 12
13 13 13 13 12 12 11 11 11 11 10 10 10 10 9 9 9 9 9 8 8 8 8 8 8 8 8 8 9 10 10 10 11 11 11 12 12 12
12 13 13 13 12 12 11 11 11 10 10 10 9 10 9 9 9 9 8 8 8 8 8 8 8 8 8 8 8 9 10 10 10 10 11 11 11 11
12 12 12 12 12 11 11 11 10 10 10 9 9 9 9 9 9 8 8 8 8 8 8 8 8 8 8 8 8 9 9 9 10 10 10 11 11 11
11 11 11 11 11 11 11 11 10 10 10 9 9 9 9 9 8 8 8 8 8 8 8 8 8 8 8 8 8 8 8 9 9 10 10 10 10 11
11 10 11 11 11 11 11 10 10 10 9 9 9 9 9 8 8 8 8 8 8 8 8 8 8 8 8 8 8 8 8 9 9 9 9 10 10 11
10 10 10 10 11 11 10 10 10 10 9 9 9 9 8 8 8 8 8 8 8 8 8 8 8 8 8 8 8 8 8 9 9 9 9 9 10 11
9 10 10 10 10 10 10 10 10 10 9 9 9 8 8 8 8 8 8 8 8 8 8 8 8 8 7 7 8 9 9 9 9 9 9 9 10 10
9 9 9 9 10 10 10 9 9 9 9 9 8 8 8 8 8 8 8 8 8 8 8 8 8 8 8 8 8 8 9 8 8 9 9 9 9 10
8 8 9 9 9 9 9 9 8 8 8 8 8 8 8 8 8 8 8 8 8 8 8 8 8 8 8 7 7 8 8 9 8 8 9 9 9 9
7 7 8 8 8 8 8 8 8 8 8 8 8 8 8 8 8 8 8 8 8 8 8 8 8 8 7 7 7 7 8 8 8 8 8 8 8 8
6 7 7 7 7 7 7 7 7 8 8 8 8 8 8 7 7 7 7 7 7 8 8 8 8 8 8 7 7 7 8 8 8 8 8 9 8 9